TimeCDT,TemperatureF,Dew PointF,Humidity,Sea Level PressureIn,VisibilityMPH,Wind Direction,Wind SpeedMPH,Gust SpeedMPH,PrecipitationIn,Events,Conditions,WindDirDegrees,DateUTC
12:58 AM,50.2,44.2,80,30.26,10.0,SE,5.8,-,N/A,,Clear,140,2013-05-25 05:58:00
1:58 AM,48.7,44.1,84,30.25,10.0,SE,6.9,-,N/A,,Clear,130,2013-05-25 06:58:00
2:58 AM,49.1,43.5,81,30.24,10.0,ESE,5.8,-,N/A,,Clear,120,2013-05-25 07:58:00
3:58 AM,48.2,43.7,84,30.23,10.0,SE,6.9,-,N/A,,Clear,130,2013-05-25 08:58:00
4:58 AM,47.8,43.2,84,30.24,10.0,SSE,4.6,-,N/A,,Clear,160,2013-05-25 09:58:00
5:58 AM,48.9,43.3,81,30.26,10.0,SSE,5.8,-,N/A,,Clear,160,2013-05-25 10:58:00
6:58 AM,50.5,44.4,80,30.26,10.0,SE,8.1,-,N/A,,Mostly Cloudy,140,2013-05-25 11:58:00
7:58 AM,56.3,46.8,70,30.25,10.0,SSE,8.1,-,N/A,,Clear,150,2013-05-25 12:58:00
8:58 AM,61.0,49.8,67,30.26,10.0,SSE,6.9,-,N/A,,Scattered Clouds,160,2013-05-25 13:58:00
9:58 AM,65.1,50.9,60,30.24,10.0,SSE,10.4,19.6,N/A,,Partly Cloudy,160,2013-05-25 14:58:00
10:58 AM,70.5,52.7,53,30.25,10.0,South,11.5,17.3,N/A,,Scattered Clouds,180,2013-05-25 15:58:00
11:58 AM,71.6,54.3,54,30.24,10.0,South,9.2,-,N/A,,Scattered Clouds,170,2013-05-25 16:58:00
12:58 PM,71.2,55.6,58,30.22,10.0,SSE,12.7,17.3,N/A,,Mostly Cloudy,150,2013-05-25 17:58:00
1:58 PM,74.1,57.6,56,30.21,10.0,SSE,6.9,-,N/A,,Scattered Clouds,160,2013-05-25 18:58:00
2:58 PM,74.5,59.2,59,30.20,10.0,Variable,5.8,-,N/A,,Mostly Cloudy,0,2013-05-25 19:58:00
3:58 PM,75.0,60.4,60,30.18,10.0,South,10.4,-,N/A,,Overcast,170,2013-05-25 20:58:00
4:58 PM,75.2,61.7,63,30.17,10.0,ESE,8.1,-,N/A,,Mostly Cloudy,110,2013-05-25 21:58:00
5:58 PM,76.6,63.1,63,30.12,10.0,SSE,12.7,-,N/A,,Clear,160,2013-05-25 22:58:00
6:58 PM,75.9,63.0,64,30.11,10.0,SSE,10.4,-,N/A,,Clear,150,2013-05-25 23:58:00
7:58 PM,72.7,62.4,70,30.10,10.0,SSE,8.1,-,N/A,,Clear,150,2013-05-26 00:58:00
8:58 PM,69.3,61.7,77,30.11,10.0,SE,5.8,-,N/A,,Clear,140,2013-05-26 01:58:00
9:58 PM,65.3,61.3,87,30.12,10.0,SE,4.6,-,N/A,,Clear,140,2013-05-26 02:58:00
10:58 PM,64.6,60.8,88,30.13,10.0,SE,5.8,-,N/A,,Clear,130,2013-05-26 03:58:00
11:58 PM,63.5,59.7,87,30.14,10.0,ESE,5.8,-,N/A,,Clear,110,2013-05-26 04:58:00